This demonstration page uses our WeatherBlox Daily Observations layout. Learn more.

Left ArrowRight Arrow

41.86663, -103.66717

Hourly Observations for October 10, 2015

Temp ( °F °C ) Dew Point ( °F °C ) Humidity (%) Winds ( mph kmh ) Pressure ( in mb ) Visibility ( mi km ) Precip ( " mm )
12:53 am 00:53 Clear 48 8.9 45 7.2 89 89 NNW 3 6 30.06 1018 10 16 N/A
1:53 am 01:53 Clear 47 8.3 44 6.7 90 90 NE 3 6 30.04 1017 10 16 N/A
2:53 am 02:53 Clear 46 7.8 43 6.1 89 89 N 5 7 30.04 1017 10 16 N/A
3:53 am 03:53 Clear 42 5.6 40 4.4 92 92 NNW 6 9 30.04 1017 10 16 N/A
4:53 am 04:53 Clear 43 6.1 41 5 93 93 N 5 7 30.03 1017 10 16 N/A
5:53 am 05:53 Clear 42 5.6 39 3.9 89 89 N 6 9 30.05 1018 10 16 N/A
6:53 am 06:53 Clear 41 5 39 3.9 93 93 N N/A 30.07 1018 10 16 N/A
7:53 am 07:53 Sunny 45 7.2 42 5.6 90 90 NNW 5 7 30.07 1018 10 16 N/A
8:53 am 08:53 Sunny 54 12.2 46 7.8 75 75 NW 7 11 30.06 1018 10 16 N/A
9:53 am 09:53 Sunny 63 17.2 47 8.3 56 56 N N/A 30.03 1017 10 16 N/A
10:53 am 10:53 Sunny 73 22.8 45 7.2 37 37 NW 6 9 29.99 1016 10 16 N/A
11:53 am 11:53 Sunny 79 26.1 46 7.8 31 31 NW 7 11 29.96 1015 10 16 N/A
12:53 pm 12:53 Sunny 84 28.9 38 3.3 19 19 WNW 12 19 29.93 1013 10 16 N/A
1:53 pm 13:53 Sunny 85 29.4 37 2.8 18 18 WNW 9 15 29.89 1012 10 16 N/A
2:53 pm 14:53 Sunny 87 30.6 33 0.6 14 14 WNW 9 15 29.85 1011 10 16 N/A
3:53 pm 15:53 Sunny 87 30.6 31 -0.6 13 13 W 8 13 29.84 1011 10 16 N/A
4:53 pm 16:53 Sunny 86 30 34 1.1 15 15 W 6 9 29.83 1010 10 16 N/A
5:53 pm 17:53 Sunny 82 27.8 36 2.2 19 19 N N/A 29.82 1010 10 16 N/A
6:53 pm 18:53 Clear 68 20 45 7.2 44 44 E 3 6 29.86 1011 10 16 N/A
7:53 pm 19:53 Clear 66 18.9 42 5.6 42 42 N N/A 29.86 1011 10 16 N/A
8:53 pm 20:53 Clear 60 15.6 44 6.7 56 56 SE 5 7 29.86 1011 10 16 N/A
9:53 pm 21:53 Clear 53 11.7 44 6.7 72 72 NNE 8 13 29.84 1010 10 16 N/A
10:53 pm 22:53 Clear 54 12.2 43 6.1 67 67 NNE 5 7 29.80 1009 10 16 N/A
11:53 pm 23:53 Clear 52 11.1 41 5 66 66 NNE 5 7 29.79 1009 10 16 N/A

Powered by AerisWeather